Location: Bremen
(53.0793°N, 8.8017°E)
Time: 23:06:19
(UTC+02:00)

Vanguard 2 Rocket - Pass Details

Date: 20 April 2024
Orbit: 556 x 3304 km, 32.9° (Epoch: 20 May)

Event Time Altitude Azimuth Distance (km) Brightness Sun altitude
Rises 21:32:13 0° 204° (SSW) 6,076 11.0 -8.5°
Reaches altitude 10° 21:36:59 10° 192° (SSW) 5,443 10.6 -9.1°
Maximum altitude 21:49:32 25° 146° (SE) 4,906 10.1 -10.6°
Drops below altitude 10° 22:03:43 10° 101° (E) 6,229 10.6 -12.3°
Sets 22:09:40 0° 90° (E) 7,109 11.0 -13.0°
